Location: Mahannah Oil Field
(37.4664°N, 96.6003°W)
Time: 03:33:26
(UTC+00:00)

Vanguard 2 - Pass Details

Date: 27 June 2021
Orbit: 552 x 2937 km, 32.9° (Epoch: 28 July)

Event Time Altitude Azimuth Distance (km) Brightness Sun altitude
Rises 03:49:22 0° 279° (W) 5,420 12.6 -18.5°
Reaches altitude 10° 03:54:29 10° 266° (W) 3,936 11.6 -19.1°
Maximum altitude 04:01:11 21° 223° (SW) 2,499 10.0 -19.9°
Enters shadow 04:03:57 17° 194° (SSW) 2,457 9.7 -20.2°
